Location: ?????
(33.6267°N, 35.4675°E)
Time: 19:00:33
(UTC+00:00)

Cosmos 1633 - Pass Details

Date: 12 November 2019
Orbit: 465 x 482 km, 82.5° (Epoch: 14 December)

Event Time Altitude Azimuth Distance (km) Brightness Sun altitude
Rises 16:14:34 0° 354° (N) 2,550 6.2 -20.4°
Reaches altitude 10° 16:16:40 10° 355° (N) 1,666 5.2 -20.8°
Enters shadow 16:18:22 26° 357° (N) 983 4.0 -21.2°
Exits shadow 16:24:17 - 173° (S) 1,800 5.4 -22.4°
Sets 16:26:00 0° 173° (S) 2,521 6.2 -22.7°
